Location: Byszew
(52.1813°N, 19.2693°E)
Time: 04:10:21
(UTC+00:00)

ASTEX 1 - Visible Passes

Search period start: 14 June 2021 00:00
Search period end: 24 June 2021 00:00
Orbit: 719 x 744 km, 92.7° (Epoch: 13 June)

Date Brightness Start Highest point End Pass type
(mag) Time Alt. Az. Time Alt. Az. Time Alt. Az.
14 Jun 4.0 01:25:03 10° SSE 01:29:56 60° E 01:34:48 10° N visible
15 Jun 5.4 00:39:20 10° SE 00:43:28 27° ENE 00:47:36 10° NNE visible
15 Jun 6.2 23:55:04 10° E 23:57:17 13° ENE 23:59:29 10° NE visible
16 Jun 3.7 01:30:29 10° SSE 01:35:25 73° E 01:40:22 10° N visible
17 Jun 5.1 00:44:30 10° SE 00:48:53 33° ENE 00:53:16 10° N visible
17 Jun 6.0 23:59:46 10° E 00:02:38 16° ENE 00:05:30 10° NNE visible
19 Jun 4.8 00:49:45 10° SE 00:54:19 39° ENE 00:58:54 10° N visible
20 Jun 5.9 00:04:38 10° ESE 00:08:00 19° ENE 00:11:22 10° NNE visible
21 Jun 4.4 00:55:03 10° SSE 00:59:47 48° ENE 01:04:30 10° N visible
22 Jun 5.6 00:09:38 10° ESE 00:13:24 22° ENE 00:17:08 10° NNE visible
22 Jun 6.3 23:26:24 10° ENE 23:27:16 10° ENE 23:28:08 10° NE visible
23 Jun 4.0 01:00:25 10° SSE 01:05:15 59° ENE 01:10:05 10° N visible
